Total_Precipitation_Accumulation
0.50 0.42 0.53 0.60 0.54 0.59 0.82 0.79 0.69 0.38 0.32 0.35 0.36 0.38 0.39 0.42 0.42 0.43 0.48 0.54 0.55 0.56 0.61 0.66 0.62 0.67 0.77 0.89 0.91 0.91 0.94 1.10 1.29 1.40 1.58 1.65 1.65 1.64 1.66 1.67 1.56 1.53 1.50 1.45
0.56 0.31 0.42 0.49 0.41 0.42 0.48 0.44 0.42 0.29 0.28 0.25 0.31 0.34 0.36 0.41 0.45 0.48 0.53 0.57 0.56 0.55 0.56 0.60 0.62 0.66 0.70 0.78 0.84 0.89 0.94 0.98 1.17 1.39 1.53 1.62 1.63 1.66 1.66 1.67 1.63 1.55 1.50 1.45
0.96 0.44 0.74 0.88 0.54 0.48 0.48 0.45 0.46 0.49 0.42 0.29 0.28 0.33 0.43 0.48 0.50 0.53 0.58 0.61 0.59 0.57 0.56 0.60 0.62 0.64 0.70 0.75 0.79 0.83 0.84 0.87 1.01 1.20 1.38 1.51 1.57 1.64 1.76 1.74 1.68 1.61 1.51 1.43
1.47 1.11 1.47 0.82 0.43 0.42 0.50 0.54 0.52 0.50 0.43 0.39 0.39 0.40 0.44 0.52 0.58 0.56 0.59 0.61 0.59 0.60 0.60 0.62 0.62 0.63 0.70 0.73 0.72 0.75 0.77 0.75 0.83 0.96 1.14 1.33 1.50 1.57 1.66 1.76 1.74 1.64 1.53 1.45
2.00 1.58 0.95 0.46 0.38 0.54 0.61 0.63 0.55 0.49 0.40 0.36 0.34 0.33 0.38 0.47 0.61 0.68 0.67 0.62 0.59 0.58 0.57 0.57 0.61 0.65 0.65 0.68 0.71 0.71 0.72 0.74 0.75 0.83 0.95 1.12 1.29 1.42 1.53 1.64 1.68 1.63 1.54 1.39
2.17 1.70 0.92 0.51 0.34 0.39 0.53 0.72 0.50 0.47 0.47 0.43 0.41 0.46 0.48 0.50 0.58 0.65 0.63 0.60 0.59 0.54 0.51 0.54 0.60 0.63 0.63 0.67 0.70 0.73 0.73 0.74 0.75 0.79 0.84 0.96 1.11 1.26 1.42 1.52 1.59 1.58 1.55 1.39
1.70 1.46 0.77 0.46 0.34 0.34 0.73 0.84 0.49 0.49 0.54 0.52 0.56 0.59 0.54 0.48 0.49 0.54 0.55 0.55 0.53 0.50 0.49 0.56 0.59 0.62 0.67 0.66 0.70 0.71 0.70 0.70 0.72 0.73 0.76 0.84 1.00 1.14 1.30 1.42 1.52 1.51 1.45 1.40
1.13 1.38 0.87 0.47 0.43 0.68 0.84 0.55 0.49 0.48 0.50 0.53 0.50 0.48 0.47 0.45 0.44 0.43 0.46 0.47 0.48 0.49 0.51 0.54 0.56 0.60 0.68 0.67 0.66 0.64 0.63 0.63 0.65 0.66 0.70 0.78 0.92 1.05 1.18 1.32 1.45 1.46 1.38 1.40
0.86 0.82 0.62 0.56 0.65 0.68 0.61 0.56 0.49 0.49 0.47 0.49 0.51 0.49 0.46 0.43 0.41 0.41 0.43 0.43 0.44 0.48 0.50 0.51 0.52 0.57 0.67 0.68 0.62 0.59 0.59 0.61 0.62 0.64 0.68 0.72 0.79 0.95 1.15 1.23 1.34 1.41 1.31 1.32
0.64 0.51 0.42 0.41 0.43 0.46 0.50 0.52 0.48 0.49 0.50 0.50 0.51 0.49 0.43 0.38 0.37 0.37 0.39 0.40 0.39 0.41 0.45 0.51 0.56 0.58 0.62 0.64 0.62 0.54 0.57 0.60 0.60 0.63 0.69 0.69 0.72 0.83 1.03 1.19 1.28 1.36 1.29 1.23
0.54 0.42 0.35 0.31 0.33 0.37 0.39 0.38 0.38 0.40 0.45 0.48 0.47 0.42 0.38 0.35 0.32 0.34 0.37 0.38 0.38 0.40 0.45 0.55 0.62 0.59 0.56 0.58 0.59 0.55 0.56 0.61 0.61 0.61 0.66 0.70 0.76 0.84 0.94 1.08 1.31 1.50 1.41 1.33
0.54 0.42 0.47 0.39 0.32 0.32 0.33 0.33 0.35 0.36 0.38 0.39 0.39 0.37 0.31 0.30 0.31 0.32 0.34 0.34 0.36 0.38 0.42 0.51 0.57 0.57 0.54 0.55 0.56 0.57 0.58 0.59 0.62 0.65 0.66 0.67 0.76 0.89 1.02 1.07 1.18 1.22 1.31 1.39
0.43 0.37 0.38 0.36 0.32 0.30 0.30 0.29 0.31 0.34 0.36 0.37 0.34 0.31 0.28 0.28 0.30 0.33 0.34 0.33 0.35 0.37 0.41 0.46 0.51 0.52 0.53 0.55 0.59 0.61 0.63 0.62 0.65 0.66 0.65 0.66 0.71 0.84 1.00 1.07 1.13 1.15 1.18 1.28
0.29 0.31 0.33 0.32 0.33 0.29 0.27 0.26 0.27 0.29 0.31 0.32 0.32 0.30 0.28 0.27 0.28 0.33 0.36 0.36 0.36 0.35 0.38 0.42 0.47 0.53 0.53 0.54 0.59 0.62 0.63 0.68 0.71 0.69 0.68 0.70 0.77 0.85 0.96 1.07 1.15 1.18 1.22 1.33
0.24 0.28 0.34 0.30 0.27 0.26 0.26 0.26 0.27 0.29 0.30 0.30 0.31 0.33 0.32 0.31 0.30 0.34 0.37 0.37 0.38 0.37 0.38 0.39 0.43 0.52 0.54 0.54 0.59 0.61 0.62 0.65 0.71 0.74 0.73 0.74 0.79 0.88 0.97 1.05 1.12 1.18 1.24 1.44
0.24 0.24 0.25 0.25 0.26 0.26 0.26 0.27 0.28 0.32 0.34 0.34 0.34 0.36 0.38 0.37 0.35 0.37 0.39 0.38 0.40 0.40 0.39 0.38 0.41 0.48 0.54 0.58 0.61 0.61 0.62 0.71 0.77 0.79 0.78 0.79 0.84 0.92 0.99 1.07 1.11 1.17 1.23 1.35
0.34 0.31 0.28 0.27 0.26 0.26 0.28 0.30 0.32 0.35 0.37 0.38 0.39 0.41 0.41 0.38 0.35 0.37 0.39 0.39 0.41 0.42 0.39 0.39 0.41 0.45 0.51 0.55 0.60 0.63 0.66 0.68 0.76 0.78 0.78 0.83 0.89 0.96 1.03 1.11 1.13 1.14 1.17 1.26
0.38 0.37 0.36 0.37 0.36 0.32 0.29 0.29 0.30 0.33 0.37 0.41 0.42 0.43 0.43 0.41 0.38 0.38 0.42 0.42 0.43 0.42 0.39 0.37 0.40 0.46 0.49 0.53 0.59 0.64 0.68 0.71 0.73 0.76 0.81 0.88 0.96 1.00 1.08 1.14 1.12 1.12 1.15 1.24
0.31 0.31 0.31 0.33 0.35 0.36 0.34 0.30 0.29 0.30 0.33 0.36 0.41 0.43 0.44 0.42 0.40 0.41 0.44 0.44 0.45 0.46 0.43 0.41 0.46 0.47 0.48 0.55 0.66 0.66 0.71 0.75 0.79 0.80 0.83 0.94 1.00 0.97 1.04 1.10 1.13 1.12 1.12 1.15
0.28 0.28 0.30 0.31 0.31 0.35 0.34 0.30 0.27 0.28 0.30 0.34 0.39 0.40 0.42 0.42 0.42 0.43 0.45 0.47 0.50 0.52 0.49 0.50 0.49 0.50 0.53 0.61 0.70 0.69 0.74 0.79 0.85 0.89 0.90 0.91 0.96 1.00 1.02 1.09 1.14 1.13 1.10 1.09
0.31 0.31 0.33 0.33 0.32 0.31 0.33 0.33 0.32 0.32 0.31 0.33 0.39 0.42 0.45 0.46 0.43 0.43 0.47 0.50 0.49 0.51 0.52 0.54 0.55 0.61 0.68 0.74 0.77 0.74 0.78 0.83 0.90 0.96 0.98 0.98 1.00 1.02 1.03 1.09 1.13 1.12 1.09 1.08
0.37 0.38 0.38 0.37 0.35 0.34 0.35 0.36 0.37 0.38 0.36 0.35 0.37 0.42 0.46 0.46 0.42 0.41 0.43 0.51 0.54 0.58 0.57 0.55 0.62 0.74 0.82 0.85 0.78 0.76 0.78 0.83 0.92 0.97 0.99 1.03 1.06 1.08 1.08 1.09 1.12 1.10 1.07 1.08
0.46 0.46 0.45 0.44 0.43 0.43 0.40 0.40 0.44 0.46 0.45 0.44 0.46 0.48 0.50 0.48 0.47 0.50 0.51 0.50 0.56 0.63 0.64 0.64 0.76 0.87 0.91 0.86 0.82 0.81 0.83 0.87 0.93 0.99 1.02 1.05 1.08 1.08 1.10 1.10 1.09 1.10 1.11 1.12
0.50 0.50 0.50 0.48 0.45 0.45 0.47 0.48 0.49 0.51 0.52 0.54 0.54 0.56 0.58 0.57 0.52 0.51 0.59 0.63 0.67 0.73 0.71 0.74 0.84 0.93 0.95 0.90 0.86 0.88 0.93 0.95 0.99 1.06 1.06 1.07 1.10 1.10 1.09 1.10 1.10 1.08 1.07 1.08
0.53 0.53 0.51 0.49 0.49 0.52 0.57 0.58 0.56 0.56 0.55 0.57 0.56 0.56 0.60 0.65 0.68 0.64 0.66 0.70 0.72 0.75 0.72 0.74 0.83 0.91 0.91 0.91 0.90 0.93 0.98 1.03 1.14 1.21 1.16 1.12 1.10 1.11 1.09 1.09 1.09 1.07 1.07 1.08
0.56 0.58 0.60 0.61 0.64 0.66 0.68 0.66 0.66 0.64 0.62 0.61 0.60 0.62 0.65 0.67 0.69 0.71 0.74 0.74 0.74 0.77 0.75 0.74 0.78 0.85 0.91 0.95 0.94 0.95 1.01 1.09 1.18 1.19 1.12 1.10 1.09 1.10 1.10 1.09 1.05 1.04 1.06 1.07
0.56 0.58 0.60 0.61 0.63 0.68 0.73 0.75 0.75 0.75 0.73 0.72 0.73 0.71 0.71 0.73 0.74 0.75 0.75 0.74 0.74 0.76 0.80 0.83 0.87 0.93 1.01 1.02 1.01 1.01 1.06 1.10 1.12 1.15 1.14 1.12 1.10 1.10 1.08 1.07 1.07 1.08 1.08 1.06